This is the latest recevied weather packets stored in our database for station/object KA0EGE. If no packets are shown the sender has not sent any weather packets the latest 10 day(s).
| Time | Temp. | Humidity | Pressure | Rain* | Wind** | Luminosity | Snow |
|---|---|---|---|---|---|---|---|
| 1778030589 | 20.56° C | 85% | 1017.6 hPa | 0 mm | - | 0 W/m² | - |
| 1778030286 | 20.56° C | 83% | 1017.6 hPa | 0 mm | - | 0 W/m² | - |
| 1778029982 | 21.11° C | 82% | 1017.6 hPa | 0 mm | - | 0 W/m² | - |
| 1778029680 | 21.67° C | 81% | 1017.4 hPa | 0 mm | - | 0 W/m² | - |
| 1778029378 | 21.67° C | 80% | 1017.2 hPa | 0 mm | - | 0 W/m² | - |
| 1778029075 | 21.67° C | 80% | 1017.4 hPa | 0 mm | - | 0 W/m² | - |
| 1778028771 | 21.67° C | 79% | 1017.4 hPa | 0 mm | - | 0 W/m² | - |
| 1778028467 | 21.67° C | 78% | 1017.2 hPa | 0 mm | - | 0 W/m² | - |
| 1778028165 | 22.22° C | 78% | 1017.4 hPa | 0 mm | - | 0 W/m² | - |
| 1778027861 | 22.22° C | 77% | 1017.3 hPa | 0 mm | - | 0 W/m² | - |
| 1778027558 | 22.22° C | 77% | 1017.2 hPa | 0 mm | - | 1 W/m² | - |
| 1778027254 | 22.22° C | 76% | 1017.1 hPa | 0 mm | - | 2 W/m² | - |
| 1778026950 | 22.78° C | 77% | 1017.2 hPa | 0 mm | - | 3 W/m² | - |
| 1778026645 | 22.78° C | 76% | 1017.1 hPa | 0 mm | - | 5 W/m² | - |
| 1778026344 | 22.78° C | 76% | 1017.2 hPa | 0 mm | - | 7 W/m² | - |
| 1778026040 | 22.78° C | 75% | 1017 hPa | 0 mm | - | 13 W/m² | - |
| 1778025738 | 22.78° C | 75% | 1016.9 hPa | 0 mm | - | 19 W/m² | - |
| 1778025435 | 23.33° C | 74% | 1016.9 hPa | 0 mm | - | 24 W/m² | - |
| 1778025133 | 23.33° C | 73% | 1016.9 hPa | 0 mm | - | 27 W/m² | - |
| 1778024829 | 23.33° C | 72% | 1017.3 hPa | 0 mm | - | 28 W/m² | - |
| 1778024526 | 23.33° C | 72% | 1017 hPa | 0 mm | - | 30 W/m² | - |
| 1778024223 | 23.89° C | 71% | 1016.9 hPa | 0 mm | - | 34 W/m² | - |
| 1778023921 | 23.89° C | 71% | 1016.7 hPa | 0 mm | - | 48 W/m² | - |
| 1778023618 | 23.89° C | 71% | 1016.9 hPa | 0 mm | - | 70 W/m² | - |
| 1778023315 | 23.89° C | 72% | 1017.2 hPa | 0 mm | - | 110 W/m² | - |
* Rain latest hour (hover to see other rain measurements)
** Current wind speed in m/s (hover to see current wind gust speed)